World > North America > United States > New York

Hourly Savannah, NY Regional Weather

Feedback E-mail the Weather

Latest News

Savannah, NY Weather Maps

°F °C°F °C
Savannah Weather Map
UTC Time: 5/21/2022, 11:43
Your Time:

Savannah, NY Regional Weather

Expires:202205211200;;323903
ASUS41 KALY 211110
RWRALY

NEW YORK STATE HOURLY WEATHER ROUNDUP
NATIONAL WEATHER SERVICE ALBANY NY
700 AM EDT SAT MAY 21 2022

NOTE: "FAIR" INDICATES FEW OR NO CLOUDS BELOW 12,000 FEET WITH NO
SIGNIFICANT WEATHER AND/OR NO OBSTRUCTIONS TO VISIBILITY.


NYZ001>004-010>016-019>021-085-211200-
WEST

  
CITY           SKY/WX    TMP DP  RH WIND       PRES   REMARKS
NIAGARA FALLS  MOSUNNY   74  62  66 SW14      29.85R                  
BUFFALO        MOSUNNY   76  64  66 SW13      29.87R                  
DUNKIRK        SUNNY     77  64  64 S13       29.89R                  
JAMESTOWN      SUNNY     70  63  78 SW12      29.97R                  
WELLSVILLE     SUNNY     72  62  71 W8        30.01R                  
ROCHESTER      SUNNY     75  65  70 SW9       29.87R                  
PENN YAN       SUNNY     69  62  78 SW8       29.93R                  
$$

             KEY
       WCI = WIND CHILL INDEX
       VSB = VISIBILITY
       HX  = HEAT INDEX
$$
  

SKY/WX - Weather  TMP - Temperature  DP - Dew Point  RH - Humidity
WIND - Wind Direction/Speed PRES - Barometric Pressure VSB - Visibility
WCI - Wind Chill Index E13G22 Wind - East Wind 13 mph/Gusts of 22 mph

Trending Headlines

Savannah Radar Loop



Savannah Quick Facts


National Two Day Weather Forecast


E-mail the Savannah Weather Forecast

Voice your opinion or tell us about page issues...